Location: Reutlingen
(48.4911°N, 9.2587°E)
Time: 01:38:09
(UTC+02:00)

OTV 5 (USA 277) - Visible Passes

Search period start: 25 May 2018 00:00
Search period end: 04 June 2018 00:00
Orbit: 308 x 326 km, 54.5° (Epoch: 06 May)

Date Brightness Start Highest point End Pass type
(mag) Time Alt. Az. Time Alt. Az. Time Alt. Az.
01 Jun ? 04:02:04 11° S 04:03:38 15° SE 04:05:21 10° E visible
02 Jun ? 04:15:49 14° SSW 04:17:50 33° SE 04:20:23 10° ENE visible
03 Jun ? 04:29:31 11° SW 04:32:09 78° SSE 04:34:56 10° ENE visible
